Home   Weather   42°08'N, 71°03'W   Past weeks
Flag for USA

Past Weather in 42°08'N, 71°03'W, USA — Yesterday and Last 2 Weeks

Now
87 °F

Scattered clouds.


Feels Like: 92 °F
Forecast: 96 / 83 °F
Wind: 12 mph from West

Location: Logan International Airport

Current Time: Jul 21, 2019 at 9:10:46 am

Latest Report: Jul 21, 2019 at 7:54 am


Visibility: 10 mi

Pressure: 29.71 "Hg

Humidity: 57%

Dew Point: 70 °F

Location of 42°08'N, 71°03'WLocation

Past Weather in 42°08'N, 71°03'W — Graph

°F

42°08'N, 71°03'W Temperature Yesterday

Maximum temperature yesterday: 96 °F (at 4:54 pm)
Minimum temperature yesterday: 80 °F (at 4:54 am)
Average temperature yesterday: 89 °F

High & Low Weather Summary for the Past Weeks

 TemperatureHumidityPressure
High96 °F (Jul 20, 4:54 pm)94% (Jul 12, 10:31 am)30.07 "Hg (Jul 12, 10:31 am)
Low66 °F (Jul 8, 4:54 am)26% (Jul 9, 5:54 pm)29.66 "Hg (Jul 12, 2:54 pm)
Average78 °F63%29.89 "Hg
* Reported Jul 6 7:54 am — Jul 21 7:54 am, 42°08'N, 71°03'W. Weather by CustomWeather, © 2019

Note: Actual official high and low records may vary slightly from our data, if they occured in-between our weather recording intervals... More about our weather records

Advertising

42°08'N, 71°03'W Weather History for the Previous 24 Hours

Scroll right to see more
 ConditionsComfort  
Time TempWeatherWind HumidityBarometerVisibility
7:54 am
Sun, Jul 21
87 °FScattered clouds.12 mph57%29.71 "Hg10 mi
6:54 am85 °FScattered clouds.15 mph59%29.70 "Hg10 mi
5:54 am83 °FScattered clouds.9 mph63%29.70 "Hg10 mi
4:54 am84 °FPartly cloudy.9 mph59%29.70 "Hg10 mi
3:54 am85 °FPassing clouds.13 mph57%29.69 "Hg10 mi
2:54 am85 °FPassing clouds.12 mph57%29.70 "Hg10 mi
1:54 am86 °FPassing clouds.14 mph61%29.71 "Hg10 mi
12:54 am88 °FPassing clouds.12 mph57%29.70 "Hg10 mi
11:54 pm
Sat, Jul 20
88 °FPassing clouds.9 mph65%29.71 "Hg10 mi
10:54 pm89 °FPassing clouds.12 mph68%29.72 "Hg10 mi
9:54 pm91 °FPassing clouds.9 mph61%29.75 "Hg10 mi
8:54 pm92 °FPassing clouds.10 mph60%29.73 "Hg10 mi
7:54 pm93 °FPartly sunny.10 mph58%29.74 "Hg10 mi
6:54 pm95 °FScattered clouds.13 mph52%29.71 "Hg10 mi
5:54 pm95 °FScattered clouds.12 mph51%29.70 "Hg10 mi
4:54 pm96 °FScattered clouds.13 mph49%29.71 "Hg10 mi
3:54 pm95 °FScattered clouds.9 mph52%29.72 "Hg10 mi
2:54 pm94 °FBroken clouds.6 mph52%29.75 "Hg10 mi
1:54 pm94 °FBroken clouds.10 mph52%29.76 "Hg10 mi
12:54 pm95 °FPartly sunny.8 mph49%29.78 "Hg10 mi
11:54 am94 °FBroken clouds.7 mph49%29.79 "Hg10 mi
10:54 am92 °FBroken clouds.9 mph54%29.79 "Hg10 mi
9:54 am90 °FPartly sunny.10 mph57%29.80 "Hg10 mi
Weather by CustomWeather, © 2019

See weather overview